Regional Weather Roundup
Issued by NWS

Home | Current Version | Previous Version | Text Only | Print | Product List | Glossary On
Versions: 1 2 3 4 5 6 7 8 9 10 11 12 13 14 15 16 17 18 19 20 21 22 23 24 25 26 27 28 29 30 31 32 33 34 35 36 37 38 39 40 41 42 43 44 45 46 47 48 49 50
000
ASUS43 KTOP 010608
RWRKS

WEATHER ROUNDUP FOR KANSAS
NATIONAL WEATHER SERVICE GOODLAND KS
100 AM CDT MON SEP 01 2014

NOTE:  "FAIR" INDICATES FEW OR NO CLOUDS BELOW 12,000 FEET WITH NO
SIGNIFICANT WEATHER AND/OR OBSTRUCTIONS TO VISIBILITY.

KSZ001>006-013>018-027>032-041>047-010700-
NORTHWEST KANSAS

CITY           SKY/WX    TMP DP  RH WIND       PRES   REMARKS
GOODLAND       CLEAR     59  54  83 N10       29.91R
6HR MIN TEMP:  56; 6HR MAX TEMP:  75; 6HR PCP: TRACE;

HAYS           FAIR      66  61  82 S7        29.80R
HILL CITY      FAIR      63  61  93 SW5       29.81R
6HR MIN TEMP:  63; 6HR MAX TEMP:  80; 6HR PCP:  0.03;

RUSSELL        FAIR      66  64  93 S8        29.77S
6HR MIN TEMP:  67; 6HR MAX TEMP:  74; 6HR PCP:  0.74;

$$

KSZ061>065-074>080-084>089-010700-
SOUTHWEST KANSAS

CITY           SKY/WX    TMP DP  RH WIND       PRES   REMARKS
DODGE CITY     FAIR      67  60  78 NE15      29.79S
6HR MIN TEMP:  67; 6HR MAX TEMP:  91; 6HR PCP:  0.18;

ELKHART          N/A     68  55  63 N6          N/A
GARDEN CITY    FAIR      66  57  72 NE15      29.81R
6HR MIN TEMP:  66; 6HR MAX TEMP:  84; 6HR PCP: TRACE;

GREAT BEND     CLOUDY    64  59  82 E7        29.78F
LIBERAL        FAIR      72  57  60 N16       29.78R
PRATT          FAIR      70  63  78 NE22G30   29.81S
$$

KSZ066>073-081>083-090>101-010700-
SOUTHEAST KANSAS

CITY           SKY/WX    TMP DP  RH WIND       PRES   REMARKS
CHANUTE        CLOUDY    73  62  68 NE17G26   29.88R
6HR MIN TEMP:  73; 6HR MAX TEMP:  90;

COFFEYVILLE    FAIR      82  68  62 S18G31    29.77F
6HR MIN TEMP:  82; 6HR MAX TEMP:  91;

HUTCHINSON     TSTM      64  60  87 NE9       29.86R
6HR MIN TEMP:  65; 6HR MAX TEMP:  92; 6HR PCP:  0.29;

MEDICINE LODGE   N/A     81  66  60 N9        29.73R
NEWTON         CLOUDY    63  55  77 N25G38    29.96R THUNDER
PARSONS        FAIR      83  67  58 VRB5      29.85R
6HR MIN TEMP:  83; 6HR MAX TEMP:  90;

WICHITA INTL   CLOUDY    83  66  56 S9        29.79R
6HR MIN TEMP:  81; 6HR MAX TEMP:  94; 6HR PCP: TRACE;

WICHITA JABRA  FAIR      74  62  66 N9        29.82R
6HR MIN TEMP:  73; 6HR MAX TEMP:  92;

WICHITA MCCONL DRIZZLE   82  66  59 SE8       29.78R
WINFIELD       FAIR      82  68  62 S20G30    29.74R
6HR MIN TEMP:  82; 6HR MAX TEMP:  92;

$$

KSZ007>012-019>026-033>040-048>060-102>105-010700-
NORTHEAST KANSAS

CITY           SKY/WX    TMP DP  RH WIND       PRES   REMARKS
CONCORDIA      LGT RAIN  69  67  93 S7        29.76R
6HR MIN TEMP:  68; 6HR MAX TEMP:  77; 6HR PCP:  0.31;

EMPORIA        TSTM      66  66 100 E7        29.82S FOG
6HR MIN TEMP:  66; 6HR MAX TEMP:  92; 6HR PCP:  1.70;

LAWRENCE       LGT RAIN N/A N/A N/A S16G24    29.90S
                                      6HR PCP:  1.28;

MANHATTAN      LGT RAIN  69  68  96 W9        29.79R
6HR MIN TEMP:  68; 6HR MAX TEMP:  94; 6HR PCP:  1.16;

OLATHE IND     TSTM      66  65  96 S10       29.93R FOG
6HR MIN TEMP:  66; 6HR MAX TEMP:  89; 6HR PCP:  1.44;

OLATHE EXE     LGT RAIN  66  65  96 S8        29.91S
6HR MIN TEMP:  65; 6HR MAX TEMP:  87; 6HR PCP:  1.03;

SALINA         RAIN      65  62  90 S8        29.83R
6HR MIN TEMP:  65; 6HR MAX TEMP:  75; 6HR PCP:  2.53;

TOPEKA BILLARD RAIN      68  67  96 SE12      29.83F
6HR MIN TEMP:  68; 6HR MAX TEMP:  92; 6HR PCP:  0.92;

TOPEKA FORBES  TSTM      67  65  93 SE12      29.83F FOG
6HR MIN TEMP:  66; 6HR MAX TEMP:  91; 6HR PCP:  0.95;

$$


USA.gov is the U.S. government's official web portal to all federal, state and local government web resources and services.